Regional Weather Roundup
Issued by NWS State College, PA

Home | Current Version | Previous Version | Text Only | Print | Product List | Glossary Off
Versions: 1 2 3 4 5 6 7 8 9 10 11 12 13 14 15 16 17 18 19 20 21 22 23 24 25 26 27 28 29 30 31 32 33 34 35 36 37 38 39 40 41 42 43 44 45 46 47 48 49 50

000
ASUS41 KCTP 191610
RWRCTP

REGIONAL WEATHER ROUNDUP
NATIONAL WEATHER SERVICE STATE COLLEGE PA
1200 PM EDT THU APR 19 2018

Note: "fair" indicates few or no clouds below 12,000 feet with no
significant weather and/or obstructions to visibility.

* = STATION THAT DOES NOT REPORT PRECIPITATION /E.G. RAIN...SNOW...ETC/
    THUNDER OR FOG.

PAZ002>004-007>009-013>016-020>023-029>032-191700-
WESTERN PENNSYLVANIA

CITY           SKY/WX    TMP DP  RH WIND       PRES   REMARKS
ERIE           CLOUDY    36  24  62 NW13G23   30.01R
MEADVILLE      CLOUDY    32  25  75 NW9G26    29.97R
FRANKLIN*      FLURRIES  31  26  82 NW8       29.95R
NEW CASTLE     FLURRIES  34  29  82 NW12G20   30.01R
BEAVER COUNTY  CLOUDY    34  28  80 NW13      30.00R
BUTLER*        CLOUDY    33  29  85 VRB6      29.99R
PITTSBURGH INT CLOUDY    35  28  75 NW17G26   29.99R
PITTSBURGH     CLOUDY    34  29  82 NW15G36   29.98R
INDIANA*       PTSUNNY   34  34 100 NW14G23   29.96R FOG
LATROBE        CLOUDY    36  36 100 NW15G24   29.97R
WASHINGTON CO* MIX PCPN  37  32  82 N17       30.03R
$$

PAZ004>006-010>012-017>019-024>028-033>037-041-042-045-046-049>053-191700-
CENTRAL PENNSYLVANIA

CITY           SKY/WX    TMP DP  RH WIND       PRES   REMARKS
BRADFORD       LGT SNOW  30  24  78 NW16G22   29.85R
DUBOIS         CLOUDY    31  29  92 W10G18    29.87R
CLEARFIELD     LGT SNOW  35  32  88 N12       29.87R FOG
JOHNSTOWN      LGT SNOW  32  29  88 W20G25    29.86R FOG
ALTOONA        CLOUDY    39  32  76 NW15      29.85R
STATE COLLEGE  CLOUDY    37  32  81 W8        29.83R
WILLIAMSPORT   LGT RAIN  40  34  79 NW8       29.81R
SELINSGROVE    CLOUDY    40  34  79 NW10      29.82R
FT INDIANTOWN  NOT AVBL
CAPITAL CITY   LGT RAIN  43  37  79 N8        29.80R
HARRISBURG     LGT RAIN  43  38  82 NW12      29.79R
YORK           CLOUDY    44  42  93 N8        29.78R
$$

PAZ038>040-043-044-047-048-054-055-060>062-067>071-191700-
EASTERN PENNSYLVANIA

CITY           SKY/WX    TMP DP  RH WIND       PRES   REMARKS
SCRANTON       LGT SNOW  36  33  89 W7        29.77R FOG
MOUNT POCONO   FLURRIES  32  31  96 NW10      29.70R
ALLENTOWN      LGT RAIN  42  36  79 NW8       29.75R
QUAKERTOWN*    PTSUNNY   41  37  87 NW6       29.74R FOG
READING        RAIN      42  40  92 N9        29.76R FOG
LANCASTER      RAIN      45  42  89 NW10      29.76R FOG
COATESVILLE    CLOUDY    46  39  76 NW8       29.75R
POTTSTOWN      CLOUDY    43  38  82 NW7       29.76R
BLUE BELL      CLOUDY    43  37  81 N5        29.75R
DOYLESTOWN     CLOUDY    43  37  79 N7        29.72R
WILLOW GROVE   NOT AVBL
NORTH PHILA    CLOUDY    48  39  71 N5        29.74R
PHILADELPHIA   CLOUDY    48  39  71 CALM      29.73R
$$




USA.gov is the U.S. government's official web portal to all federal, state and local government web resources and services.